Theta_e
310 310 309 308 308 306 304 304 298 309 309 296 299 292 291 293 294 297 295 295 293 291 291 289 289 288 291 296 296 290 294 291 285 288 293 295 291 290 288 285 284 288 287 291
310 310 309 308 307 307 302 297 300 310 306 292 290 292 291 293 293 294 292 291 293 295 289 286 290 291 295 296 295 292 295 289 283 285 291 294 290 291 290 291 291 287 285 291
310 309 308 308 307 307 303 297 294 301 301 298 291 290 290 290 294 294 295 293 295 292 290 293 288 290 293 295 295 297 296 291 287 283 286 290 287 289 292 291 286 287 289 292
308 307 306 307 307 306 303 297 295 296 292 295 293 293 291 289 289 294 295 292 291 290 286 289 289 291 291 294 296 296 294 287 289 290 291 291 289 289 290 289 290 287 289 291
306 306 306 307 306 306 303 295 292 295 295 294 292 291 290 288 290 291 290 289 292 292 289 289 286 290 291 288 293 292 293 287 290 287 290 290 288 290 290 290 291 291 292 291
305 304 305 306 306 306 298 299 296 292 293 292 289 289 290 290 292 293 294 292 291 290 293 295 298 296 296 294 289 289 289 287 286 284 289 288 285 289 290 291 292 292 289 294
304 305 304 305 306 306 302 299 297 290 288 291 289 290 290 289 290 289 295 295 293 297 302 301 300 300 298 297 294 292 288 288 289 285 285 277 289 294 294 293 294 296 296 297
304 304 304 304 306 306 306 301 296 290 286 291 290 290 289 290 291 291 294 295 299 303 299 293 292 293 292 293 293 291 291 288 286 282 283 286 288 293 292 289 292 299 299 300
304 303 303 304 305 305 306 306 302 295 289 291 294 290 292 287 288 291 294 300 303 300 293 289 284 285 287 287 290 291 291 291 286 285 279 277 288 294 296 296 287 301 301 301
302 303 303 303 303 304 306 304 308 297 289 294 295 290 289 291 290 287 290 293 296 300 291 285 284 285 290 285 285 286 286 286 283 283 281 285 292 294 294 284 291 301 302 301
301 302 302 303 303 304 304 302 310 300 293 294 296 298 292 292 291 286 292 292 296 295 291 289 288 285 289 286 289 287 285 285 286 286 283 280 293 290 287 296 299 298 300 300
301 301 301 302 302 303 304 300 306 306 296 295 302 301 302 299 298 293 292 293 293 296 292 291 294 289 290 288 284 294 286 287 286 286 286 294 296 291 292 293 291 297 300 301
300 300 300 301 301 301 302 301 304 300 295 294 297 299 304 306 302 306 292 296 299 296 297 291 292 288 293 287 288 290 294 291 286 286 293 293 296 298 298 301 302 302 302 303
300 300 302 302 302 302 302 301 305 301 296 289 297 305 302 307 306 304 304 303 303 301 297 292 290 289 296 291 293 291 295 294 289 290 295 297 296 298 298 301 303 303 305 306
301 302 303 302 302 302 303 302 302 302 295 289 292 300 305 305 305 303 303 301 298 294 292 290 289 295 295 295 296 294 298 293 290 290 297 295 295 299 298 298 301 302 301 303
302 303 302 301 301 302 301 295 303 304 301 292 288 302 301 304 306 304 300 300 297 294 293 292 295 301 294 291 292 298 300 300 302 297 301 300 299 299 299 298 301 302 301 302
301 301 301 301 302 303 297 297 301 304 302 293 289 292 303 301 303 302 300 301 299 296 295 294 296 298 296 293 291 299 300 301 302 302 301 297 298 296 300 300 301 302 302 303
302 302 300 302 305 302 298 303 304 303 297 296 288 290 298 305 301 299 303 297 296 296 296 302 299 298 297 292 298 299 300 302 301 301 302 300 299 299 299 299 301 300 299 301
301 299 301 305 303 298 301 305 306 303 297 290 290 288 291 303 300 305 302 302 293 299 294 296 297 297 293 298 298 299 300 300 300 301 301 300 298 297 299 297 298 299 298 301
299 299 301 296 300 300 303 300 296 293 294 294 289 297 291 299 300 299 301 301 296 293 297 302 296 296 302 302 302 303 302 302 301 298 296 297 297 297 298 297 296 299 299 299
297 293 293 299 302 302 300 295 293 291 289 292 294 295 292 300 294 296 300 298 298 291 296 296 294 296 301 303 302 304 304 304 304 303 302 300 299 298 298 297 297 297 298 299
295 295 296 296 295 294 291 290 293 292 290 296 295 294 294 295 302 297 299 293 297 289 300 295 292 300 302 303 302 304 305 304 303 303 301 300 299 299 299 299 299 296 297 299
298 293 289 290 292 285 284 283 288 290 297 296 295 293 296 295 297 296 296 291 292 299 293 292 297 302 303 304 303 304 305 305 304 303 302 301 300 299 299 298 299 298 295 297
290 288 284 287 286 286 289 289 291 295 295 295 296 296 292 294 292 293 291 295 296 289 288 290 298 303 303 304 304 304 303 304 303 303 302 302 300 299 299 299 298 299 296 297
287 288 282 287 292 293 293 295 294 296 297 295 293 294 296 287 286 290 291 289 288 291 292 298 300 304 305 304 304 304 305 305 304 304 303 302 301 299 298 298 299 298 297 295
289 287 285 289 289 290 291 293 292 295 295 295 295 292 292 290 292 289 289 288 289 294 299 301 303 306 306 306 306 305 305 306 305 305 304 304 302 299 299 299 299 298 297 296
286 289 291 290 288 289 291 292 292 296 292 290 293 289 288 294 288 289 294 293 296 298 301 304 305 305 307 306 307 307 307 307 307 306 306 305 304 301 300 298 298 298 298 297
Wind_Speed
18 17 18 20 21 23 9 6 4 4 4 5 2 4 8 7 5 4 8 8 10 11 12 11 14 12 7 13 13 15 13 8 12 16 9 5 9 11 6 6 20 16 11 4
17 16 15 19 19 17 6 7 4 2 5 3 5 6 7 6 7 4 4 6 7 13 14 9 8 12 7 14 15 6 8 6 11 10 8 4 8 15 13 14 15 15 13 4
16 15 14 17 18 17 6 5 4 3 3 2 5 10 4 5 3 10 6 10 13 11 12 13 11 18 12 13 16 15 10 14 15 14 19 15 11 12 12 13 11 13 16 20
14 15 16 16 17 19 5 1 3 4 4 3 9 8 8 9 6 3 10 6 8 12 7 19 22 18 16 16 20 21 6 14 18 18 19 17 18 19 17 17 19 19 18 24
15 15 17 17 16 21 3 5 4 4 10 6 8 1 3 8 6 11 12 14 12 15 18 19 27 24 19 8 4 11 4 6 14 20 18 19 22 21 21 21 20 21 22 27
15 15 17 17 15 10 3 2 1 2 7 5 5 5 7 14 15 10 9 11 17 19 21 20 24 23 24 17 6 7 4 4 9 13 10 13 16 17 20 22 21 21 22 23
15 15 16 17 14 11 2 1 1 1 6 5 8 9 13 14 15 17 21 16 15 13 22 24 22 19 15 10 8 10 5 9 10 7 2 10 11 2 9 13 14 15 22 22
15 16 15 16 14 13 6 1 2 2 4 8 14 2 11 13 14 15 17 13 11 15 16 10 11 2 3 5 4 8 12 6 6 5 9 14 19 7 5 3 13 17 21 19
16 16 16 15 13 13 7 5 3 2 4 4 7 17 11 7 7 11 8 13 12 9 4 4 5 5 7 6 6 3 8 12 7 4 5 6 4 6 3 10 17 8 16 18
16 16 15 15 14 13 7 5 7 3 4 6 6 5 6 2 5 5 12 8 8 2 4 3 4 5 6 5 7 5 2 4 12 12 6 6 1 5 7 7 6 14 13 13
16 16 16 15 14 13 5 8 4 4 5 11 15 20 13 6 5 3 7 10 3 6 5 3 3 3 4 4 7 7 4 4 2 6 6 5 5 6 6 13 20 19 15 14
16 16 15 15 14 15 10 4 1 3 6 8 19 22 22 22 20 7 3 7 9 4 3 3 4 3 4 8 4 2 3 3 3 3 4 10 14 9 16 22 24 24 14 14
16 16 16 15 14 13 9 5 4 2 4 10 10 5 4 9 13 13 5 6 6 2 1 2 4 5 2 3 4 5 4 4 3 4 1 13 14 10 13 18 3 10 13 15
18 17 16 16 14 12 12 7 5 2 3 5 3 3 11 9 11 14 20 10 2 5 1 3 4 4 4 4 7 8 4 3 4 6 11 11 4 13 15 15 11 12 9 8
18 17 16 17 16 13 10 8 8 7 4 4 8 20 6 3 7 13 16 16 11 3 2 3 4 5 2 4 6 8 3 3 3 4 14 7 9 12 15 16 13 12 12 11
20 19 21 22 18 13 4 3 2 3 5 3 5 6 6 4 5 8 12 10 7 4 3 3 4 8 1 4 5 5 7 3 8 7 13 8 9 11 12 13 14 12 11 10
22 24 25 22 14 7 5 2 3 4 5 3 5 5 5 4 3 5 5 8 5 5 3 5 5 2 4 4 5 8 7 5 9 8 10 9 13 13 13 12 13 8 9 10
24 26 21 15 4 2 5 7 8 3 2 3 4 6 5 6 4 4 5 4 4 5 4 4 4 1 4 5 3 5 7 6 7 9 10 7 10 13 13 11 10 11 11 11
26 21 14 4 4 3 1 5 2 6 2 3 3 3 4 3 5 2 4 4 4 3 4 3 1 5 6 2 2 3 6 7 8 8 12 12 12 13 13 12 13 12 12 12
21 8 4 3 2 10 8 4 3 3 4 4 5 6 7 6 3 3 2 4 4 4 5 3 4 5 5 4 1 4 4 6 8 10 11 12 14 13 14 14 10 11 11 14
5 5 3 7 8 5 5 4 5 4 4 5 5 8 6 4 5 4 2 3 2 4 3 4 2 3 1 6 5 6 5 6 7 7 7 9 11 12 12 11 11 10 11 11
9 11 9 4 4 5 5 4 4 5 4 5 4 2 3 4 3 4 2 3 2 3 1 4 3 1 7 7 6 5 5 5 7 7 7 8 12 12 12 11 10 9 8 10
2 3 4 4 3 4 6 5 5 4 1 6 1 2 2 3 6 3 3 4 3 3 3 3 2 5 7 7 6 5 5 4 7 8 6 8 11 13 13 12 10 9 9 11
4 4 4 4 3 4 4 7 6 4 2 4 6 3 3 2 4 2 4 1 1 3 3 2 2 1 7 8 7 7 5 4 5 7 6 9 10 11 12 12 12 10 10 11
4 3 4 3 7 8 8 8 7 6 7 7 6 7 4 3 2 3 3 4 4 4 2 4 5 5 6 9 8 7 7 5 4 5 6 8 9 10 11 11 11 12 11 11
3 4 5 5 9 8 5 4 4 8 8 7 5 5 3 4 1 3 5 2 3 2 4 4 3 2 6 8 8 6 6 7 5 4 6 6 8 10 10 10 11 11 13 14
4 3 5 6 4 9 8 9 8 7 8 5 4 4 3 1 2 2 2 2 3 3 6 4 4 4 4 6 7 8 7 7 7 6 6 7 7 6 8 10 10 10 12 13
Wind_Direction
332 331 334 341 347 342 342 312 257 45 306 237 236 285 344 339 289 242 275 280 278 288 309 295 297 286 279 314 312 301 311 292 285 287 285 209 169 226 230 255 224 250 302 36
333 333 333 341 348 2 322 321 299 87 291 349 332 329 295 272 284 281 301 286 288 307 292 293 294 284 281 296 295 295 344 252 298 290 163 215 217 238 207 248 251 267 244 155
341 345 345 342 342 352 312 298 295 139 36 21 327 338 316 300 245 281 262 280 294 286 301 274 274 285 287 296 287 298 295 266 263 278 301 322 300 284 277 270 281 270 253 265
352 351 341 341 343 340 295 337 54 8 312 329 324 298 284 296 311 281 288 287 280 296 283 295 283 286 305 289 275 275 270 263 266 273 281 284 281 275 269 260 263 263 262 273
344 347 340 342 348 337 293 350 347 343 287 302 303 307 296 305 332 317 286 288 300 308 292 288 289 291 298 260 254 285 205 264 282 274 268 270 270 267 263 263 259 260 264 267
339 338 339 335 345 348 314 65 113 268 304 300 310 302 336 319 321 306 277 289 299 292 287 294 290 290 281 256 216 231 242 263 268 254 264 275 272 265 257 252 249 241 252 263
332 330 336 333 341 346 311 310 186 219 286 314 302 291 299 302 311 294 296 293 281 299 306 299 280 262 255 257 259 216 220 223 253 282 272 253 254 55 298 298 276 258 253 259
328 331 328 327 333 335 307 177 240 235 270 289 296 299 310 299 297 297 300 293 314 321 301 302 311 327 215 177 195 209 218 211 267 243 224 267 285 299 357 1 287 287 263 257
330 331 333 328 327 331 318 261 183 208 284 252 334 312 299 290 304 306 311 326 318 301 310 317 317 334 337 319 337 142 207 234 261 265 249 257 29 99 30 295 278 305 256 255
333 330 328 328 325 324 317 276 193 199 265 259 279 278 313 252 266 275 297 338 302 245 317 319 328 313 348 305 314 332 220 215 231 242 255 266 293 32 341 239 5 342 343 331
332 328 326 324 322 322 324 290 236 233 257 278 261 268 262 246 224 247 323 303 190 283 338 351 14 287 325 289 284 312 292 303 250 236 243 258 51 319 234 322 307 307 302 297
327 325 323 320 318 315 319 263 329 253 250 273 293 280 269 256 249 259 219 292 316 289 304 324 324 291 292 314 297 38 287 234 304 265 311 293 294 240 266 265 259 269 274 278
323 318 317 314 312 306 306 292 280 227 264 274 246 250 223 219 234 228 216 223 232 222 71 291 288 268 283 285 284 285 273 109 243 311 277 276 307 304 308 333 336 243 263 264
320 317 312 308 303 298 289 270 261 276 293 279 292 260 271 278 226 216 214 251 100 314 212 244 258 264 166 270 291 283 306 239 284 251 275 306 5 352 336 340 19 23 11 5
310 306 303 313 307 295 284 265 250 239 236 289 299 302 262 211 208 218 219 224 243 277 272 232 240 256 282 251 259 262 340 297 282 320 326 359 334 347 342 342 7 13 7 2
317 320 311 306 301 287 279 276 87 177 172 256 284 345 259 224 220 213 212 212 215 217 234 241 242 249 167 285 274 319 348 283 318 321 352 8 350 334 352 344 357 2 358 8
316 312 310 303 286 229 219 323 39 138 154 242 276 276 163 209 195 187 201 186 199 207 232 219 242 262 173 260 268 3 356 343 352 359 349 359 353 4 344 11 356 1 6 10
316 314 313 308 232 228 244 252 201 154 244 238 264 271 255 174 215 209 165 186 191 197 251 236 261 326 213 260 354 355 1 354 14 6 12 18 2 3 7 19 9 22 20 15
319 313 310 209 214 198 191 15 298 174 232 263 241 264 306 159 250 235 186 205 222 172 229 261 183 232 225 300 27 35 10 16 3 15 22 11 12 5 19 14 17 27 10 27
312 285 224 196 78 329 279 162 196 165 201 224 249 245 252 306 290 254 262 174 239 240 197 177 231 271 295 227 112 76 33 33 24 14 25 10 6 9 14 24 27 24 17 15
336 336 312 348 316 248 208 225 212 166 223 210 227 221 231 246 243 286 294 302 256 265 103 271 325 255 126 155 166 116 102 81 61 45 28 25 5 3 18 23 31 29 28 28
311 295 309 289 276 244 246 223 214 237 256 180 252 112 211 276 257 253 198 249 241 270 38 260 252 117 138 162 133 124 114 88 69 69 49 27 21 18 21 29 39 42 24 31
260 227 235 240 220 247 230 213 207 217 353 29 12 230 255 220 230 248 248 234 252 328 252 264 303 76 149 150 148 146 119 90 84 91 70 43 35 32 27 30 45 55 42 38
284 290 275 247 210 258 284 333 338 341 315 288 282 246 187 310 221 215 241 90 241 250 234 240 41 17 160 159 158 160 148 108 78 87 74 57 49 46 37 32 36 52 50 46
273 273 262 265 348 320 328 347 332 326 307 316 309 280 163 193 231 203 207 204 233 217 278 43 19 326 175 168 170 157 143 149 117 82 74 62 59 58 54 43 43 48 61 67
264 256 284 329 310 333 319 343 337 320 325 295 259 273 227 240 269 186 218 220 228 34 350 355 355 318 199 186 182 162 162 148 140 115 100 84 64 71 71 61 51 53 53 60
275 268 301 287 290 284 308 326 331 344 301 304 302 253 278 31 282 263 271 259 340 328 352 27 8 345 197 189 186 166 171 166 155 141 129 104 98 90 86 77 74 66 63 66